This is the latest recevied weather packets stored in our database for station/object KI5MKI. If no packets are shown the sender has not sent any weather packets the latest 10 day(s).
| Time | Temp. | Humidity | Pressure | Rain* | Wind** | Luminosity | Snow |
|---|---|---|---|---|---|---|---|
| 1777741666 | 21.67° C | 40% | 1022.4 hPa | 0 mm | - | 868 W/m² | - |
| 1777741363 | 21.67° C | 42% | 1022.5 hPa | 0 mm | - | 829 W/m² | - |
| 1777741059 | 21.67° C | 39% | 1022.5 hPa | 0 mm | - | 815 W/m² | - |
| 1777740756 | 21.67° C | 37% | 1022.4 hPa | 0 mm | - | 805 W/m² | - |
| 1777740453 | 21.67° C | 38% | 1022.5 hPa | 0 mm | - | 779 W/m² | - |
| 1777740151 | 21.11° C | 40% | 1022.5 hPa | 0 mm | - | 751 W/m² | - |
| 1777739846 | 21.11° C | 40% | 1022.5 hPa | 0 mm | - | 740 W/m² | - |
| 1777739543 | 20.56° C | 41% | 1022.5 hPa | 0 mm | - | 731 W/m² | - |
| 1777739240 | 21.11° C | 45% | 1022.3 hPa | 0 mm | - | 731 W/m² | - |
| 1777738937 | 20.56° C | 45% | 1022.4 hPa | 0 mm | - | 720 W/m² | - |
| 1777738634 | 21.11° C | 44% | 1022.5 hPa | 0 mm | - | 725 W/m² | - |
| 1777738330 | 21.67° C | 45% | 1022.4 hPa | 0 mm | - | 718 W/m² | - |
| 1777738029 | 20.56° C | 45% | 1022.6 hPa | 0 mm | - | 691 W/m² | - |
| 1777737728 | 20.56° C | 47% | 1022.4 hPa | 0 mm | - | 686 W/m² | - |
| 1777737425 | 20.56° C | 46% | 1022.3 hPa | 0 mm | - | 678 W/m² | - |
| 1777737117 | 20° C | 50% | 1022.3 hPa | 0 mm | - | 669 W/m² | - |
| 1777736812 | 20° C | 51% | 1022.3 hPa | 0 mm | - | 658 W/m² | - |
| 1777736189 | 20° C | 52% | 1022.1 hPa | 0 mm | - | 642 W/m² | - |
| 1777735886 | 19.44° C | 55% | 1022.1 hPa | 0 mm | - | 629 W/m² | - |
| 1777735583 | 19.44° C | 56% | 1022.2 hPa | 0 mm | - | 622 W/m² | - |
| 1777735281 | 19.44° C | 54% | 1022.2 hPa | 0 mm | - | 611 W/m² | - |
| 1777734978 | 18.89° C | 58% | 1022.1 hPa | 0 mm | - | 598 W/m² | - |
| 1777734675 | 18.89° C | 57% | 1022.2 hPa | 0 mm | - | 586 W/m² | - |
| 1777734373 | 18.33° C | 60% | 1022.3 hPa | 0 mm | - | 573 W/m² | - |
| 1777734069 | 17.78° C | 58% | 1022.2 hPa | 0 mm | - | 561 W/m² | - |
* Rain latest hour (hover to see other rain measurements)
** Current wind speed in m/s (hover to see current wind gust speed)